This is the latest recevied weather packets stored in our database for station/object F4DYW-13. If no packets are shown the sender has not sent any weather packets the latest 1 day(s).
| Time | Temp. | Humidity | Pressure | Rain* | Wind** | Luminosity | Snow |
|---|---|---|---|---|---|---|---|
| 1778099736 | 17.78° C | 66% | 1014.6 hPa | 0 mm | - | - | - |
| 1778098695 | 17.78° C | 66% | 1014.4 hPa | 0 mm | - | - | - |
| 1778095588 | 17.78° C | 66% | 1013.8 hPa | 0 mm | - | - | - |
| 1778091443 | 17.78° C | 66% | 1012.5 hPa | 0 mm | - | - | - |
| 1778090407 | 18.33° C | 65% | 1012.1 hPa | 0 mm | - | - | - |
| 1778087300 | 18.33° C | 64% | 1011.5 hPa | 0 mm | - | - | - |
| 1778081086 | 18.33° C | 61% | 1011.4 hPa | 0 mm | - | - | - |
| 1778077979 | 18.33° C | 60% | 1011.6 hPa | 0 mm | - | - | - |
| 1778073837 | 18.33° C | 60% | 1011.9 hPa | 0 mm | - | - | - |
| 1778065551 | 17.78° C | 62% | 1012.7 hPa | 0 mm | - | - | - |
| 1778061411 | 17.78° C | 62% | 1013 hPa | 0 mm | - | - | - |
| 1778060374 | 17.78° C | 62% | 1013 hPa | 0 mm | - | - | - |
| 1778057266 | 17.78° C | 65% | 1012.8 hPa | 0 mm | - | - | - |
| 1778052088 | 17.22° C | 70% | 1012.5 hPa | 0 mm | - | - | - |
| 1778048984 | 17.22° C | 69% | 1012.1 hPa | 0 mm | - | - | - |
| 1778046908 | 17.22° C | 69% | 1011.8 hPa | 0 mm | - | - | - |
| 1778044837 | 17.22° C | 69% | 1011.4 hPa | 0 mm | - | - | - |
| 1778043801 | 17.22° C | 69% | 1011.3 hPa | 0 mm | - | - | - |
| 1778041730 | 17.22° C | 70% | 1010.9 hPa | 0 mm | - | - | - |
| 1778039658 | 17.22° C | 70% | 1010.9 hPa | 0 mm | - | - | - |
| 1778034480 | 17.78° C | 69% | 1011.2 hPa | 0 mm | - | - | - |
| 1778033444 | 17.78° C | 69% | 1011.2 hPa | 0 mm | - | - | - |
| 1778032408 | 17.78° C | 69% | 1011.4 hPa | 0 mm | - | - | - |
| 1778031373 | 17.22° C | 69% | 1011.4 hPa | 0 mm | - | - | - |
| 1778027230 | 17.78° C | 69% | 1011.7 hPa | 0 mm | - | - | - |
* Rain latest hour (hover to see other rain measurements)
** Current wind speed in m/s (hover to see current wind gust speed)